Data for 04/23/2017

Time Sea-Level Adjusted Pressure Absolute Pressure Temperature Relative Humidity Dew Point   
(mb) (inHg) (mb) (inHg) (C) (F) (%) (C) (F)
00:05 1015 29.97 845 24.95 7.5 45.5 47 -3.1 26.4
00:10 1015 29.97 845 24.95 7.4 45.3 47 -3.2 26.3
00:15 1015 29.97 844 24.92 7.4 45.3 47 -3.2 26.3
00:20 1015 29.97 844 24.92 7.4 45.3 46 -3.3 26
00:25 1015 29.97 844 24.92 7.3 45.2 46 -3.4 25.8
00:30 1015 29.97 844 24.92 7.2 44.9 46 -3.6 25.5
00:35 1015 29.97 844 24.92 7 44.6 46 -3.8 25.1
00:40 1015 29.97 844 24.92 7 44.5 45 -4 24.8
00:45 1015 29.97 844 24.92 7 44.6 45 -4.1 24.6
00:50 1015 29.97 844 24.92 7.1 44.8 45 -4.1 24.6
00:55 1015 29.97 844 24.92 7.1 44.7 46 -3.9 25
01:00 1015 29.97 844 24.92 6.9 44.4 47 -3.6 25.6
01:05 1015 29.97 844 24.92 6.6 43.9 49 -3.3 26
01:10 1015 29.97 844 24.92 6.3 43.3 51 -3.1 26.5
01:15 1015 29.97 844 24.92 6 42.8 52 -3.1 26.4
01:20 1015 29.97 844 24.92 5.8 42.4 53 -3 26.7
01:25 1015 29.97 844 24.92 5.6 42.1 53 -3.1 26.3
01:30 1015 29.97 844 24.92 5.6 42.1 52 -3.4 25.8
01:35 1015 29.97 844 24.92 5.9 42.5 51 -3.5 25.8
01:40 1015 29.97 844 24.92 6.2 43.2 48 -3.9 25.1
01:45 1014 29.94 844 24.92 6.6 43.9 48 -3.7 25.3
01:50 1014 29.94 843 24.89 6.7 44 47 -3.8 25.2
01:55 1014 29.94 843 24.89 6.6 43.9 46 -4.1 24.7
02:00 1014 29.94 843 24.89 6.7 44 49 -3.2 26.3
02:05 1014 29.94 843 24.89 6.3 43.3 49 -3.6 25.6
02:10 1014 29.94 843 24.89 6.2 43.2 48 -4 24.8
02:15 1014 29.94 843 24.89 6.4 43.6 47 -4 24.8
02:20 1014 29.94 843 24.89 6.5 43.8 47 -4.1 24.7
02:25 1014 29.94 843 24.89 6.6 43.9 47 -4 24.8
02:30 1014 29.94 843 24.89 6.8 44.2 46 -4.1 24.7
02:35 1014 29.94 843 24.89 6.9 44.5 45 -4.2 24.4
02:40 1014 29.94 843 24.89 7.1 44.7 44 -4.2 24.4
02:45 1014 29.94 843 24.89 7 44.6 44 -4.3 24.3
02:50 1014 29.94 843 24.89 7 44.6 44 -4.3 24.3
02:55 1014 29.94 843 24.89 6.8 44.3 46 -4 24.8
03:00 1014 29.94 843 24.89 6.8 44.3 45 -4.3 24.3
03:05 1014 29.94 843 24.89 6.8 44.2 46 -4.1 24.7
03:10 1014 29.94 843 24.89 6.6 43.9 48 -3.7 25.4
03:15 1014 29.94 843 24.89 6.5 43.6 47 -3.9 24.9
03:20 1014 29.94 843 24.89 6.5 43.7 48 -3.8 25.1
03:25 1013 29.91 843 24.89 6.6 43.8 47 -3.9 25
03:30 1013 29.91 843 24.89 6.8 44.2 45 -4.2 24.4
03:35 1013 29.91 843 24.89 7 44.6 44 -4.4 24.1
03:40 1013 29.91 842 24.86 7.1 44.8 44 -4.2 24.4
03:45 1013 29.91 842 24.86 7 44.7 44 -4.4 24.1
03:50 1013 29.91 842 24.86 7.1 44.7 44 -4.3 24.2
03:55 1013 29.91 842 24.86 7.2 44.9 44 -4.4 24.1
04:00 1013 29.91 842 24.86 7.3 45.1 44 -4.2 24.4
04:05 1013 29.91 842 24.86 7.1 44.8 45 -4.1 24.5
04:10 1013 29.91 842 24.86 7 44.7 45 -4.1 24.7
04:15 1013 29.91 842 24.86 7.1 44.7 44 -4.5 24
04:20 1013 29.91 842 24.86 7.2 45 44 -4.1 24.6
04:25 1013 29.91 842 24.86 7.2 45 44 -4.2 24.4
04:30 1013 29.91 842 24.86 7.2 45 43 -4.4 24.1
04:35 1013 29.91 842 24.86 7.3 45.2 43 -4.3 24.2
04:40 1013 29.91 842 24.86 7.3 45.2 43 -4.4 24.1
04:45 1012 29.88 842 24.86 7.4 45.4 44 -4.1 24.6
04:50 1012 29.88 842 24.86 7.4 45.2 44 -4 24.8
04:55 1012 29.88 842 24.86 7.2 44.9 45 -4 24.9
05:00 1012 29.88 841 24.83 7.1 44.8 45 -3.9 25
05:05 1012 29.88 841 24.83 6.9 44.5 46 -3.8 25.1
05:10 1012 29.88 841 24.83 7 44.6 46 -3.8 25.1
05:15 1012 29.88 841 24.83 7 44.5 45 -4 24.7
05:20 1012 29.88 841 24.83 7.1 44.8 46 -3.8 25.1
05:25 1012 29.88 841 24.83 7 44.7 47 -3.6 25.6
05:30 1012 29.88 841 24.83 7 44.6 48 -3.2 26.2
05:35 1012 29.88 841 24.83 6.9 44.5 47 -3.7 25.3
05:40 1012 29.88 841 24.83 7 44.6 47 -3.5 25.7
05:45 1012 29.88 841 24.83 6.9 44.4 47 -3.7 25.4
05:50 1012 29.88 841 24.83 6.9 44.4 46 -3.9 24.9
05:55 1012 29.88 841 24.83 7 44.5 47 -3.6 25.6
06:00 1012 29.88 841 24.83 6.9 44.5 46 -3.8 25.2
06:05 1012 29.88 841 24.83 6.9 44.5 47 -3.7 25.4
06:10 1012 29.88 841 24.83 6.9 44.4 48 -3.4 25.9
06:15 1012 29.88 841 24.83 6.7 44.1 48 -3.5 25.8
06:20 1012 29.88 841 24.83 6.8 44.2 47 -3.7 25.4
06:25 1012 29.88 841 24.83 7 44.7 49 -3 26.6
06:30 1012 29.88 841 24.83 6.8 44.2 47 -3.6 25.5
06:35 1012 29.88 841 24.83 6.9 44.5 47 -3.5 25.6
06:40 1012 29.88 841 24.83 7.1 44.9 45 -4.1 24.6
06:45 1012 29.88 841 24.83 7.4 45.3 46 -3.6 25.6
06:50 1012 29.88 841 24.83 7.3 45.1 47 -3.4 26
06:55 1012 29.88 841 24.83 7.2 45 45 -3.9 24.9
07:00 1012 29.88 841 24.83 7.6 45.6 43 -4.3 24.3
07:05 1012 29.88 841 24.83 7.8 46.1 44 -3.6 25.6
07:10 1012 29.88 841 24.83 7.9 46.2 44 -3.6 25.6
07:15 1012 29.88 841 24.83 7.8 46 45 -3.5 25.7
07:20 1012 29.88 841 24.83 7.6 45.6 44 -3.9 24.9
07:25 1012 29.88 841 24.83 7.9 46.2 40 -4.8 23.3
07:30 1012 29.88 842 24.86 8.3 46.9 41 -4 24.8
07:35 1013 29.91 842 24.86 8.5 47.4 39 -4.8 23.4
07:40 1013 29.91 842 24.86 8.8 47.8 38 -4.8 23.3
07:45 1013 29.91 842 24.86 8.9 47.9 37 -5 23
07:50 1012 29.88 842 24.86 9 48.2 37 -4.8 23.3
07:55 1012 29.88 842 24.86 9.2 48.6 36 -5 23
08:00 1012 29.88 842 24.86 9.3 48.7 42 -2.9 26.7
08:05 1012 29.88 842 24.86 8.8 47.8 42 -3.4 25.8
08:10 1012 29.88 842 24.86 8.7 47.6 40 -4 24.7
08:15 1012 29.88 842 24.86 8.8 47.9 41 -3.6 25.6
08:20 1012 29.88 841 24.83 8.8 47.8 44 -2.9 26.7
08:25 1012 29.88 841 24.83 8.5 47.4 44 -3 26.6
08:30 1012 29.88 841 24.83 8.7 47.7 43 -3.1 26.5
08:35 1012 29.88 841 24.83 8.9 48 44 -2.7 27.1
08:40 1012 29.88 841 24.83 9 48.3 43 -2.8 27
08:45 1012 29.88 841 24.83 8.9 47.9 47 -1.7 28.9
08:50 1012 29.88 841 24.83 8.7 47.6 47 -1.9 28.6
08:55 1012 29.88 841 24.83 8.5 47.4 45 -2.7 27.2
09:00 1012 29.88 841 24.83 8.5 47.2 48 -2 28.5
09:05 1012 29.88 841 24.83 8.4 47.1 47 -2.2 28.1
09:10 1012 29.88 841 24.83 8.5 47.4 49 -1.5 29.2
09:15 1012 29.88 841 24.83 8.7 47.6 48 -1.8 28.8
09:20 1012 29.88 841 24.83 8.8 47.8 45 -2.5 27.6
09:25 1012 29.88 841 24.83 8.9 48.1 44 -2.5 27.5
09:30 1012 29.88 841 24.83 9.1 48.4 43 -2.7 27.1
09:35 1012 29.88 841 24.83 9.2 48.6 43 -2.7 27.2
09:40 1012 29.88 841 24.83 9.3 48.7 43 -2.6 27.3
09:45 1012 29.88 841 24.83 9.3 48.8 44 -2.2 28.1
09:50 1012 29.88 841 24.83 9.5 49.1 46 -1.4 29.5
09:55 1012 29.88 841 24.83 9.7 49.4 44 -2 28.5
10:00 1012 29.88 841 24.83 10.4 50.6 43 -1.7 29
10:05 1012 29.88 841 24.83 10.9 51.5 40 -2.1 28.2
10:10 1012 29.88 841 24.83 10.9 51.5 44 -0.8 30.5
10:15 1012 29.88 841 24.83 10.6 51 44 -1.2 29.8
10:20 1011 29.85 841 24.83 10.7 51.2 43 -1.3 29.7
10:25 1011 29.85 841 24.83 10.7 51.3 44 -0.8 30.5
10:30 1011 29.85 840 24.81 10.4 50.8 48 0 32
10:35 1011 29.85 840 24.81 10.1 50.2 49 0 32.1
10:40 1011 29.85 840 24.81 9.9 49.9 51 0.3 32.5
10:45 1011 29.85 840 24.81 10.4 50.7 49 0.3 32.5
10:50 1011 29.85 840 24.81 10.8 51.5 48 0.2 32.4
10:55 1011 29.85 840 24.81 10.9 51.6 46 -0.1 31.8
11:00 1011 29.85 840 24.81 11.3 52.3 44 -0.5 31.2
11:05 1011 29.85 840 24.81 11.7 53 43 -0.4 31.3
11:10 1011 29.85 840 24.81 12 53.6 43 -0.3 31.5
11:15 1011 29.85 840 24.81 11.9 53.5 43 -0.2 31.6
11:20 1011 29.85 840 24.81 12.2 54 41 -0.5 31.1
11:25 1011 29.85 840 24.81 12.4 54.3 41 -0.3 31.4
11:30 1011 29.85 840 24.81 12.9 55.2 40 -0.3 31.5
11:35 1011 29.85 840 24.81 13.3 55.9 38 -0.8 30.6
11:40 1011 29.85 840 24.81 13.4 56.1 38 -0.6 30.9
11:45 1010 29.83 840 24.81 13.3 56 39 -0.3 31.4
11:50 1010 29.83 840 24.81 13.3 56 38 -0.8 30.6
11:55 1010 29.83 840 24.81 13.7 56.6 36 -1.1 30.1
12:00 1010 29.83 839 24.78 14.3 57.8 36 -0.5 31.1
12:05 1010 29.83 839 24.78 14.8 58.6 33 -1.3 29.7
12:10 1010 29.83 839 24.78 15.2 59.4 33 -0.6 30.8
12:15 1010 29.83 839 24.78 14.8 58.6 33 -1.1 30
12:20 1010 29.83 839 24.78 14.2 57.6 34 -1.1 29.9
12:25 1010 29.83 839 24.78 14.3 57.7 34 -1.1 30
12:30 1010 29.83 839 24.78 14.4 57.9 36 -0.5 31.1
12:35 1010 29.83 839 24.78 14.1 57.3 35 -1.3 29.7
12:40 1010 29.83 839 24.78 13.9 57 37 -0.3 31.4
12:45 1010 29.83 839 24.78 13.3 55.9 38 -0.8 30.5
12:50 1010 29.83 839 24.78 13.7 56.6 36 -1.1 30
12:55 1010 29.83 839 24.78 14.4 57.9 34 -1.3 29.6
13:00 1010 29.83 839 24.78 14.2 57.5 37 -0.1 31.9
13:05 1009 29.8 839 24.78 13.8 56.9 40 0.4 32.8
13:10 1009 29.8 839 24.78 13.5 56.4 41 0.5 32.9
13:15 1009 29.8 838 24.75 13.1 55.5 43 0.9 33.6
13:20 1009 29.8 838 24.75 13 55.4 46 1.8 35.3
13:25 1009 29.8 838 24.75 12.7 54.9 44 0.9 33.6
13:30 1009 29.8 838 24.75 12.7 54.9 45 1.1 33.9
13:35 1009 29.8 838 24.75 12.7 54.8 46 1.3 34.3
13:40 1009 29.8 838 24.75 12.5 54.6 43 0.3 32.6
13:45 1009 29.8 838 24.75 12.8 55 46 1.6 34.8
13:50 1009 29.8 838 24.75 12.8 55 47 1.7 35
13:55 1009 29.8 838 24.75 13.2 55.8 44 1.2 34.2
14:00 1009 29.8 838 24.75 13 55.4 41 0 32.1
14:05 1008 29.77 838 24.75 13.2 55.8 39 -0.5 31.2
14:10 1008 29.77 838 24.75 13.9 57 36 -1 30.3
14:15 1008 29.77 838 24.75 14.4 58 36 -0.4 31.2
14:20 1008 29.77 838 24.75 14.4 58 35 -0.8 30.5
14:25 1008 29.77 838 24.75 14.4 57.8 38 0.3 32.5
14:30 1008 29.77 838 24.75 14.3 57.7 37 -0.1 31.8
14:35 1008 29.77 838 24.75 14.2 57.6 37 -0.2 31.6
14:40 1008 29.77 838 24.75 13.9 57 36 -0.7 30.8
14:45 1009 29.8 838 24.75 13.9 57 33 -2.1 28.3
14:50 1009 29.8 838 24.75 13.1 55.6 35 -1.9 28.5
14:55 1009 29.8 838 24.75 12.8 55 35 -2.1 28.2
15:00 1009 29.8 838 24.75 12.7 54.9 36 -1.8 28.7
15:05 1009 29.8 838 24.75 12.5 54.5 39 -0.9 30.3
15:10 1009 29.8 838 24.75 12.2 54 42 -0.1 31.8
15:15 1009 29.8 838 24.75 12 53.5 46 0.8 33.5
15:20 1009 29.8 838 24.75 11.8 53.2 46 0.7 33.2
15:25 1009 29.8 839 24.78 11.5 52.7 49 1.3 34.3
15:30 1010 29.83 839 24.78 11.3 52.3 51 1.5 34.7
15:35 1010 29.83 839 24.78 10.8 51.5 53 1.7 35.1
15:40 1010 29.83 839 24.78 10.6 51 54 1.7 35.1
15:45 1010 29.83 839 24.78 10.4 50.6 55 1.8 35.3
15:50 1010 29.83 839 24.78 10 50.1 57 2 35.7
15:55 1010 29.83 839 24.78 9.8 49.6 58 2 35.6
16:00 1010 29.83 839 24.78 9.3 48.7 62 2.4 36.3
16:05 1010 29.83 839 24.78 8.9 48 63 2.3 36.1
16:10 1010 29.83 839 24.78 8.6 47.4 65 2.4 36.3
16:15 1010 29.83 839 24.78 8.5 47.2 67 2.7 36.9
16:20 1010 29.83 839 24.78 8.5 47.2 67 2.7 36.9
16:25 1010 29.83 839 24.78 8.4 47.2 66 2.5 36.4
16:30 1010 29.83 840 24.81 8.5 47.4 66 2.5 36.6
16:35 1010 29.83 840 24.81 8.6 47.4 67 2.7 36.9
16:40 1010 29.83 840 24.81 8.6 47.4 66 2.6 36.8
16:45 1010 29.83 840 24.81 8.4 47 69 3.1 37.5
16:50 1010 29.83 840 24.81 8.2 46.7 71 3.2 37.8
16:55 1010 29.83 840 24.81 7.9 46.3 75 3.7 38.7
17:00 1010 29.83 840 24.81 7.8 46 77 3.9 39
17:05 1010 29.83 840 24.81 7.7 45.8 77 3.8 38.9
17:10 1011 29.85 840 24.81 7.6 45.7 77 3.9 39.1
17:15 1011 29.85 840 24.81 7.6 45.7 78 4 39.3
17:20 1011 29.85 840 24.81 7.5 45.6 77 3.8 38.8
17:25 1011 29.85 840 24.81 7.4 45.4 79 4.1 39.4
17:30 1011 29.85 840 24.81 7.2 45 79 3.8 38.8
17:35 1011 29.85 840 24.81 6.8 44.2 69 1.6 34.9
17:40 1011 29.85 840 24.81 6.8 44.3 73 2.3 36.2
17:45 1010 29.83 840 24.81 6.9 44.4 75 2.8 37.1
17:50 1010 29.83 840 24.81 6.8 44.2 78 3.2 37.8
17:55 1010 29.83 840 24.81 6.5 43.8 77 2.8 37.1
18:00 1011 29.85 840 24.81 6.5 43.7 77 2.7 36.9
18:05 1011 29.85 840 24.81 6.6 43.9 77 2.8 37.1
18:10 1010 29.83 840 24.81 6.6 43.9 77 2.8 37.1
18:15 1010 29.83 840 24.81 6.7 44 78 3.2 37.7
18:20 1010 29.83 840 24.81 6.7 44.1 76 2.7 36.9
18:25 1010 29.83 840 24.81 6.8 44.2 76 2.9 37.2
18:30 1010 29.83 840 24.81 6.9 44.5 73 2.5 36.5
18:35 1010 29.83 839 24.78 6.9 44.3 72 2.3 36.1
18:40 1010 29.83 839 24.78 6.8 44.3 72 2.2 36
18:45 1010 29.83 839 24.78 6.9 44.4 71 2 35.6
18:50 1010 29.83 839 24.78 7 44.7 70 2 35.6
18:55 1010 29.83 839 24.78 7.2 44.9 67 1.5 34.7
19:00 1010 29.83 839 24.78 7.4 45.3 64 1 33.7
19:05 1010 29.83 839 24.78 7.6 45.6 65 1.4 34.5
19:10 1010 29.83 839 24.78 7.7 45.8 72 2.9 37.3
19:15 1010 29.83 839 24.78 7.5 45.6 72 2.9 37.2
19:20 1010 29.83 839 24.78 7.3 45.1 75 3.1 37.6
19:25 1010 29.83 839 24.78 7.2 45 73 2.8 37
19:30 1010 29.83 839 24.78 7.3 45.1 69 2.1 35.7
19:35 1010 29.83 839 24.78 7.2 45 69 1.9 35.3
19:40 1010 29.83 839 24.78 7.3 45.1 68 1.9 35.3
19:45 1010 29.83 839 24.78 7.2 45 67 1.6 34.8
19:50 1010 29.83 839 24.78 7.1 44.9 70 2.1 35.7
19:55 1010 29.83 839 24.78 7 44.6 72 2.3 36.1
20:00 1010 29.83 839 24.78 6.9 44.5 71 2.1 35.7
20:05 1010 29.83 839 24.78 6.7 44.1 74 2.4 36.3
20:10 1010 29.83 839 24.78 6.6 43.9 74 2.4 36.3
20:15 1010 29.83 839 24.78 6.5 43.8 76 2.6 36.7
20:20 1010 29.83 839 24.78 6.4 43.6 77 2.7 36.8
20:25 1010 29.83 839 24.78 6.3 43.3 77 2.6 36.6
20:30 1010 29.83 839 24.78 6.1 43.1 77 2.5 36.5
20:35 1010 29.83 839 24.78 6.1 43 77 2.4 36.3
20:40 1010 29.83 839 24.78 6.1 42.9 77 2.3 36.2
20:45 1010 29.83 839 24.78 6 42.9 77 2.4 36.3
20:50 1010 29.83 839 24.78 6.1 42.9 78 2.5 36.5
20:55 1010 29.83 839 24.78 6 42.8 78 2.5 36.6
21:00 1010 29.83 840 24.81 6 42.8 78 2.5 36.4
21:05 1011 29.85 840 24.81 6 42.8 80 2.8 37
21:10 1011 29.85 840 24.81 6.3 43.3 78 2.7 36.9
21:15 1011 29.85 840 24.81 5.8 42.4 79 2.4 36.3
21:20 1011 29.85 840 24.81 5 41.1 82 2.2 36
21:25 1011 29.85 840 24.81 4.8 40.7 82 2.1 35.7
21:30 1011 29.85 840 24.81 4.7 40.5 84 2.3 36.1
21:35 1011 29.85 840 24.81 4.7 40.5 84 2.3 36.1
21:40 1011 29.85 840 24.81 4.6 40.4 85 2.4 36.2
21:45 1011 29.85 840 24.81 4.5 40.1 86 2.3 36.2
21:50 1011 29.85 840 24.81 4.5 40.1 85 2.2 36
21:55 1011 29.85 840 24.81 4.5 40.2 85 2.2 36
22:00 1011 29.85 840 24.81 4.5 40.1 87 2.5 36.4
22:05 1011 29.85 840 24.81 4.5 40 87 2.5 36.5
22:10 1011 29.85 840 24.81 4.4 39.9 87 2.5 36.4
22:15 1011 29.85 840 24.81 4.4 39.9 87 2.3 36.2
22:20 1011 29.85 840 24.81 4.4 39.9 86 2.2 36
22:25 1011 29.85 840 24.81 4.4 40 85 2.2 35.9
22:30 1011 29.85 840 24.81 4.4 39.9 84 2 35.6
22:35 1011 29.85 840 24.81 4.4 39.9 84 1.9 35.4
22:40 1010 29.83 840 24.81 4.4 39.9 85 2 35.6
22:45 1010 29.83 840 24.81 4.3 39.7 85 2 35.7
22:50 1010 29.83 840 24.81 4.2 39.6 86 2 35.7
22:55 1010 29.83 840 24.81 4.2 39.6 85 1.9 35.4
23:00 1010 29.83 839 24.78 4.3 39.8 84 1.9 35.5
23:05 1010 29.83 839 24.78 4.3 39.7 85 2 35.6
23:10 1010 29.83 839 24.78 4.1 39.4 86 1.9 35.5
23:15 1010 29.83 839 24.78 4.2 39.5 84 1.7 35
23:20 1010 29.83 839 24.78 4.5 40 82 1.6 34.9
23:25 1010 29.83 839 24.78 4.7 40.5 83 2.1 35.8
23:30 1010 29.83 839 24.78 4.4 39.9 87 2.4 36.2
23:35 1010 29.83 839 24.78 4.1 39.4 87 2.2 35.9
23:40 1010 29.83 839 24.78 4.1 39.4 88 2.2 36
23:45 1010 29.83 839 24.78 4.1 39.4 87 2.2 35.9
23:50 1010 29.83 839 24.78 4.1 39.5 87 2.1 35.8
23:55 1010 29.83 839 24.78 4.2 39.6 85 2 35.6
24:00 1010 29.83 839 24.78 4.2 39.6 85 2 35.6